Time,TemperatureF,DewpointF,PressureIn,WindDirection,WindDirectionDegrees,WindSpeedMPH,WindSpeedGustMPH,Humidity,HourlyPrecipIn,Conditions,Clouds,dailyrainin,SoftwareType,DateUTC
2013-04-13 00:00:00,66.4,60.4,29.96,ESE,113,7.0,14.0,81,0.00,,---,0.00,VWS V14.01,2013-04-13 05:00:00,
2013-04-13 00:05:00,66.3,60.7,29.96,East,98,10.0,10.0,82,0.00,,---,0.00,VWS V14.01,2013-04-13 05:05:00,
2013-04-13 00:10:00,66.4,60.4,29.96,ESE,119,5.0,12.0,81,0.00,,---,0.00,VWS V14.01,2013-04-13 05:10:00,
2013-04-13 00:15:00,66.4,60.7,29.95,East,95,6.0,12.0,82,0.00,,---,0.00,VWS V14.01,2013-04-13 05:15:00,
2013-04-13 00:20:00,66.4,60.7,29.95,ESE,116,5.0,12.0,82,0.00,,---,0.00,VWS V14.01,2013-04-13 05:20:00,
2013-04-13 00:25:00,66.5,60.5,29.95,ESE,112,10.0,13.0,81,0.00,,---,0.00,VWS V14.01,2013-04-13 05:25:00,
2013-04-13 00:30:00,66.4,60.4,29.95,East,90,4.0,13.0,81,0.00,,---,0.00,VWS V14.01,2013-04-13 05:30:00,
2013-04-13 00:35:00,66.4,60.7,29.95,ESE,108,5.0,13.0,82,0.00,,---,0.00,VWS V14.01,2013-04-13 05:35:00,
2013-04-13 00:40:00,66.4,60.7,29.95,East,86,4.0,13.0,82,0.00,,---,0.00,VWS V14.01,2013-04-13 05:40:00,
2013-04-13 00:45:00,66.3,60.7,29.95,SE,143,5.0,13.0,82,0.00,,---,0.00,VWS V14.01,2013-04-13 05:45:00,
2013-04-13 00:50:00,66.4,60.7,29.95,ESE,115,5.0,13.0,82,0.00,,---,0.00,VWS V14.01,2013-04-13 05:50:00,
2013-04-13 00:55:00,66.4,60.4,29.95,ESE,112,10.0,13.0,81,0.00,,---,0.00,VWS V14.01,2013-04-13 05:55:00,
2013-04-13 01:00:00,66.4,60.4,29.95,ESE,120,6.0,13.0,81,0.00,,---,0.00,VWS V14.01,2013-04-13 06:00:00,
2013-04-13 01:05:00,66.4,60.4,29.95,ESE,115,6.0,11.0,81,0.00,,---,0.00,VWS V14.01,2013-04-13 06:05:00,
2013-04-13 01:10:00,66.4,60.4,29.95,ESE,102,5.0,11.0,81,0.00,,---,0.00,VWS V14.01,2013-04-13 06:10:00,
2013-04-13 01:15:00,66.3,60.3,29.95,SE,134,4.0,11.0,81,0.00,,---,0.00,VWS V14.01,2013-04-13 06:15:00,
2013-04-13 01:20:00,66.4,60.0,29.95,ESE,114,7.0,11.0,80,0.00,,---,0.00,VWS V14.01,2013-04-13 06:20:00,
2013-04-13 01:25:00,66.5,60.2,29.96,ESE,116,2.0,11.0,80,0.00,,---,0.00,VWS V14.01,2013-04-13 06:25:00,
2013-04-13 01:30:00,66.4,60.4,29.96,ESE,112,6.0,11.0,81,0.00,,---,0.00,VWS V14.01,2013-04-13 06:30:00,
2013-04-13 01:35:00,66.4,60.7,29.95,East,100,3.0,11.0,82,0.00,,---,0.00,VWS V14.01,2013-04-13 06:35:00,
2013-04-13 01:40:00,66.3,60.7,29.95,East,82,10.0,11.0,82,0.00,,---,0.00,VWS V14.01,2013-04-13 06:40:00,
2013-04-13 01:45:00,66.4,60.4,29.95,East,94,3.0,11.0,81,0.00,,---,0.00,VWS V14.01,2013-04-13 06:45:00,
2013-04-13 01:50:00,66.3,60.3,29.95,East,88,3.0,11.0,81,0.00,,---,0.00,VWS V14.01,2013-04-13 06:50:00,
2013-04-13 01:56:00,66.3,60.3,29.95,East,94,4.0,11.0,81,0.00,,---,0.00,VWS V14.01,2013-04-13 06:56:00,
2013-04-13 02:01:00,66.3,60.3,29.95,ESE,103,5.0,11.0,81,0.00,,---,0.00,VWS V14.01,2013-04-13 07:01:00,
2013-04-13 02:06:00,66.3,60.3,29.95,ESE,116,6.0,8.0,81,0.00,,---,0.00,VWS V14.01,2013-04-13 07:06:00,
2013-04-13 02:11:00,66.3,60.3,29.95,ESE,109,5.0,9.0,81,0.00,,---,0.00,VWS V14.01,2013-04-13 07:11:00,
2013-04-13 02:16:00,66.3,60.7,29.94,East,84,5.0,9.0,82,0.00,,---,0.00,VWS V14.01,2013-04-13 07:16:00,
2013-04-13 02:21:00,66.2,60.5,29.94,East,101,3.0,9.0,82,0.00,,---,0.00,VWS V14.01,2013-04-13 07:21:00,
2013-04-13 02:26:00,66.2,60.5,29.94,SE,125,7.0,9.0,82,0.00,,---,0.00,VWS V14.01,2013-04-13 07:26:00,
2013-04-13 02:31:00,66.2,60.2,29.94,East,86,4.0,9.0,81,0.00,,---,0.00,VWS V14.01,2013-04-13 07:31:00,
2013-04-13 02:36:00,66.3,60.3,29.94,East,97,6.0,9.0,81,0.00,,---,0.00,VWS V14.01,2013-04-13 07:36:00,
2013-04-13 02:41:00,66.3,60.3,29.93,ESE,108,7.0,9.0,81,0.00,,---,0.00,VWS V14.01,2013-04-13 07:41:00,
2013-04-13 02:47:00,66.3,60.3,29.93,East,96,6.0,9.0,81,0.00,,---,0.00,VWS V14.01,2013-04-13 07:47:00,
2013-04-13 02:52:00,66.2,60.5,29.93,East,86,3.0,9.0,82,0.00,,---,0.00,VWS V14.01,2013-04-13 07:52:00,
2013-04-13 02:57:00,66.0,60.3,29.93,East,101,3.0,9.0,82,0.00,,---,0.00,VWS V14.01,2013-04-13 07:57:00,
2013-04-13 03:02:00,66.0,60.3,29.93,ESE,108,7.0,9.0,82,0.00,,---,0.00,VWS V14.01,2013-04-13 08:02:00,
2013-04-13 03:07:00,65.9,60.6,29.93,East,94,3.0,6.0,83,0.00,,---,0.00,VWS V14.01,2013-04-13 08:07:00,
2013-04-13 03:12:00,65.9,60.6,29.93,East,101,3.0,7.0,83,0.00,,---,0.00,VWS V14.01,2013-04-13 08:12:00,
2013-04-13 03:17:00,65.8,60.5,29.93,ESE,103,5.0,7.0,83,0.00,,---,0.00,VWS V14.01,2013-04-13 08:17:00,
2013-04-13 03:22:00,65.7,60.7,29.93,East,84,3.0,7.0,84,0.00,,---,0.00,VWS V14.01,2013-04-13 08:22:00,
2013-04-13 03:27:00,65.7,60.7,29.93,East,82,2.0,7.0,84,0.00,,---,0.00,VWS V14.01,2013-04-13 08:27:00,
2013-04-13 03:32:00,65.6,60.6,29.93,East,96,4.0,7.0,84,0.00,,---,0.00,VWS V14.01,2013-04-13 08:32:00,
2013-04-13 03:37:00,65.6,60.6,29.93,ESE,118,4.0,7.0,84,0.00,,---,0.00,VWS V14.01,2013-04-13 08:37:00,
2013-04-13 03:43:00,65.6,61.0,29.93,East,82,3.0,7.0,85,0.00,,---,0.00,VWS V14.01,2013-04-13 08:43:00,
2013-04-13 03:48:00,65.6,61.0,29.93,East,101,4.0,7.0,85,0.00,,---,0.00,VWS V14.01,2013-04-13 08:48:00,
2013-04-13 03:53:00,65.5,60.9,29.93,East,100,4.0,7.0,85,0.00,,---,0.00,VWS V14.01,2013-04-13 08:53:00,
2013-04-13 03:58:00,65.6,61.0,29.93,ESE,103,3.0,7.0,85,0.00,,---,0.00,VWS V14.01,2013-04-13 08:58:00,
2013-04-13 04:03:00,65.7,61.4,29.93,ESE,114,5.0,5.0,86,0.00,,---,0.00,VWS V14.01,2013-04-13 09:03:00,
2013-04-13 04:08:00,65.8,61.5,29.92,ESE,115,3.0,7.0,86,0.00,,---,0.00,VWS V14.01,2013-04-13 09:08:00,
2013-04-13 04:13:00,65.7,61.4,29.92,ESE,109,2.0,7.0,86,0.00,,---,0.00,VWS V14.01,2013-04-13 09:13:00,
2013-04-13 04:18:00,65.6,61.3,29.92,East,98,4.0,7.0,86,0.00,,---,0.00,VWS V14.01,2013-04-13 09:18:00,
2013-04-13 04:23:00,65.7,61.4,29.92,ESE,105,3.0,7.0,86,0.00,,---,0.00,VWS V14.01,2013-04-13 09:23:00,
2013-04-13 04:28:00,65.7,61.7,29.92,East,95,1.0,7.0,87,0.00,,---,0.00,VWS V14.01,2013-04-13 09:28:00,
2013-04-13 04:33:00,65.6,61.6,29.92,ESE,113,2.0,7.0,87,0.00,,---,0.00,VWS V14.01,2013-04-13 09:33:00,
2013-04-13 04:38:00,65.5,61.5,29.92,ESE,121,3.0,7.0,87,0.00,,---,0.00,VWS V14.01,2013-04-13 09:38:00,
2013-04-13 04:43:00,65.5,61.9,29.92,East,101,3.0,7.0,88,0.00,,---,0.00,VWS V14.01,2013-04-13 09:43:00,
2013-04-13 04:49:00,65.4,61.8,29.92,ESE,112,4.0,7.0,88,0.00,,---,0.00,VWS V14.01,2013-04-13 09:49:00,
2013-04-13 04:53:00,65.3,61.7,29.92,East,84,3.0,7.0,88,0.00,,---,0.00,VWS V14.01,2013-04-13 09:53:00,
2013-04-13 04:58:00,65.3,62.0,29.92,East,101,2.0,7.0,89,0.00,,---,0.00,VWS V14.01,2013-04-13 09:58:00,
2013-04-13 05:03:00,65.3,62.0,29.92,East,84,3.0,5.0,89,0.00,,---,0.00,VWS V14.01,2013-04-13 10:03:00,
2013-04-13 05:09:00,65.3,62.0,29.92,East,83,3.0,5.0,89,0.00,,---,0.00,VWS V14.01,2013-04-13 10:09:00,
2013-04-13 05:14:00,65.3,62.3,29.92,East,99,3.0,5.0,90,0.00,,---,0.00,VWS V14.01,2013-04-13 10:14:00,
2013-04-13 05:19:00,65.3,62.3,29.92,ESE,105,1.0,5.0,90,0.00,,---,0.00,VWS V14.01,2013-04-13 10:19:00,
2013-04-13 05:24:00,65.3,62.3,29.92,ESE,103,1.0,5.0,90,0.00,,---,0.00,VWS V14.01,2013-04-13 10:24:00,
2013-04-13 05:29:00,65.4,62.7,29.92,East,86,2.0,5.0,91,0.00,,---,0.00,VWS V14.01,2013-04-13 10:29:00,
2013-04-13 05:34:00,65.3,62.6,29.92,ESE,104,1.0,5.0,91,0.00,,---,0.00,VWS V14.01,2013-04-13 10:34:00,
2013-04-13 05:39:00,65.3,62.6,29.92,ESE,115,0.0,5.0,91,0.00,,---,0.00,VWS V14.01,2013-04-13 10:39:00,
2013-04-13 05:44:00,65.2,62.5,29.92,East,97,1.0,5.0,91,0.00,,---,0.00,VWS V14.01,2013-04-13 10:44:00,
2013-04-13 05:50:00,65.2,62.5,29.92,East,94,2.0,5.0,91,0.00,,---,0.00,VWS V14.01,2013-04-13 10:50:00,
2013-04-13 05:56:00,65.2,62.5,29.92,ESE,110,2.0,5.0,91,0.00,,---,0.00,VWS V14.01,2013-04-13 10:56:00,
2013-04-13 06:01:00,65.4,62.7,29.92,ESE,108,2.0,6.0,91,0.00,,---,0.00,VWS V14.01,2013-04-13 11:01:00,
2013-04-13 06:06:00,65.8,62.8,29.92,ESE,109,3.0,5.0,90,0.00,,---,0.00,VWS V14.01,2013-04-13 11:06:00,
2013-04-13 06:12:00,65.9,62.9,29.92,East,90,4.0,6.0,90,0.00,,---,0.00,VWS V14.01,2013-04-13 11:12:00,
2013-04-13 06:17:00,66.0,63.0,29.92,East,93,4.0,6.0,90,0.00,,---,0.00,VWS V14.01,2013-04-13 11:17:00,
2013-04-13 06:22:00,66.0,63.0,29.92,ESE,108,3.0,6.0,90,0.00,,---,0.00,VWS V14.01,2013-04-13 11:22:00,
2013-04-13 06:27:00,65.9,62.9,29.92,East,95,2.0,6.0,90,0.00,,---,0.00,VWS V14.01,2013-04-13 11:27:00,
2013-04-13 06:32:00,65.8,62.8,29.92,ESE,103,1.0,6.0,90,0.00,,---,0.00,VWS V14.01,2013-04-13 11:32:00,
2013-04-13 06:37:00,65.7,62.7,29.92,ENE,71,2.0,6.0,90,0.00,,---,0.00,VWS V14.01,2013-04-13 11:37:00,
2013-04-13 06:42:00,65.5,62.5,29.92,ENE,68,3.0,6.0,90,0.00,,---,0.00,VWS V14.01,2013-04-13 11:42:00,
2013-04-13 06:47:00,65.3,62.6,29.92,ENE,66,3.0,6.0,91,0.00,,---,0.00,VWS V14.01,2013-04-13 11:47:00,
2013-04-13 06:52:00,65.2,62.5,29.92,ENE,72,3.0,6.0,91,0.00,,---,0.00,VWS V14.01,2013-04-13 11:52:00,
2013-04-13 06:58:00,65.1,62.7,29.92,ENE,66,2.0,6.0,92,0.00,,---,0.00,VWS V14.01,2013-04-13 11:58:00,
2013-04-13 07:03:00,65.1,62.7,29.92,East,92,3.0,3.0,92,0.00,,---,0.00,VWS V14.01,2013-04-13 12:03:00,
2013-04-13 07:08:00,65.1,62.7,29.92,East,81,1.0,3.0,92,0.00,,---,0.00,VWS V14.01,2013-04-13 12:08:00,
2013-04-13 07:13:00,65.1,62.7,29.92,ENE,58,3.0,4.0,92,0.00,,---,0.00,VWS V14.01,2013-04-13 12:13:00,
2013-04-13 07:18:00,65.1,62.7,29.92,ENE,70,3.0,4.0,92,0.00,,---,0.00,VWS V14.01,2013-04-13 12:18:00,
2013-04-13 07:23:00,65.2,63.1,29.92,East,101,3.0,4.0,93,0.00,,---,0.00,VWS V14.01,2013-04-13 12:23:00,
2013-04-13 07:28:00,65.4,63.0,29.92,ENE,69,5.0,6.0,92,0.00,,---,0.00,VWS V14.01,2013-04-13 12:28:00,
2013-04-13 07:33:00,65.7,63.3,29.92,ENE,61,7.0,7.0,92,0.00,,---,0.00,VWS V14.01,2013-04-13 12:33:00,
2013-04-13 07:38:00,65.9,63.5,29.92,East,81,2.0,7.0,92,0.00,,---,0.00,VWS V14.01,2013-04-13 12:38:00,
2013-04-13 07:43:00,66.1,63.7,29.92,East,84,5.0,7.0,92,0.00,,---,0.00,VWS V14.01,2013-04-13 12:43:00,
2013-04-13 07:48:00,66.2,63.8,29.92,ENE,77,2.0,8.0,92,0.00,,---,0.00,VWS V14.01,2013-04-13 12:48:00,
2013-04-13 07:53:00,66.5,64.1,29.92,ENE,65,5.0,8.0,92,0.00,,---,0.00,VWS V14.01,2013-04-13 12:53:00,
2013-04-13 07:58:00,66.7,64.3,29.92,East,97,3.0,8.0,92,0.00,,---,0.00,VWS V14.01,2013-04-13 12:58:00,
2013-04-13 08:03:00,67.0,64.3,29.93,East,92,3.0,6.0,91,0.00,,---,0.00,VWS V14.01,2013-04-13 13:03:00,
2013-04-13 08:08:00,67.3,64.6,29.92,East,79,8.0,9.0,91,0.00,,---,0.00,VWS V14.01,2013-04-13 13:08:00,
2013-04-13 08:14:00,67.5,64.8,29.93,ENE,61,5.0,9.0,91,0.00,,---,0.00,VWS V14.01,2013-04-13 13:14:00,
2013-04-13 08:19:00,67.7,64.7,29.92,ESE,113,8.0,9.0,90,0.00,,---,0.00,VWS V14.01,2013-04-13 13:19:00,
2013-04-13 08:24:00,68.0,65.0,29.93,East,96,6.0,9.0,90,0.00,,---,0.00,VWS V14.01,2013-04-13 13:24:00,
2013-04-13 08:29:00,68.0,64.6,29.93,ESE,118,5.0,10.0,89,0.00,,---,0.00,VWS V14.01,2013-04-13 13:29:00,
2013-04-13 08:34:00,68.4,64.7,29.93,East,91,9.0,10.0,88,0.00,,---,0.00,VWS V14.01,2013-04-13 13:34:00,
2013-04-13 08:39:00,68.4,64.4,29.93,ENE,72,6.0,11.0,87,0.00,,---,0.00,VWS V14.01,2013-04-13 13:39:00,
2013-04-13 08:45:00,68.5,64.5,29.92,NE,47,6.0,11.0,87,0.00,,---,0.00,VWS V14.01,2013-04-13 13:45:00,
2013-04-13 08:50:00,68.9,64.6,29.92,ESE,114,5.0,11.0,86,0.00,,---,0.00,VWS V14.01,2013-04-13 13:50:00,
2013-04-13 08:55:00,69.0,64.3,29.92,East,92,8.0,12.0,85,0.00,,---,0.00,VWS V14.01,2013-04-13 13:55:00,
2013-04-13 09:00:00,68.9,64.2,29.93,East,91,7.0,13.0,85,0.00,,---,0.00,VWS V14.01,2013-04-13 14:00:00,
2013-04-13 09:05:00,69.0,64.3,29.93,East,92,8.0,10.0,85,0.00,,---,0.00,VWS V14.01,2013-04-13 14:05:00,
2013-04-13 09:10:00,68.9,64.2,29.93,ENE,60,4.0,11.0,85,0.00,,---,0.00,VWS V14.01,2013-04-13 14:10:00,
2013-04-13 09:15:00,69.0,64.0,29.93,ENE,67,4.0,11.0,84,0.00,,---,0.00,VWS V14.01,2013-04-13 14:15:00,
2013-04-13 09:21:00,69.2,64.5,29.93,East,86,9.0,11.0,85,0.00,,---,0.00,VWS V14.01,2013-04-13 14:21:00,
2013-04-13 09:26:00,69.5,64.1,29.93,ENE,60,5.0,11.0,83,0.00,,---,0.00,VWS V14.01,2013-04-13 14:26:00,
2013-04-13 09:31:00,69.7,64.0,29.93,East,89,7.0,11.0,82,0.00,,---,0.00,VWS V14.01,2013-04-13 14:31:00,
2013-04-13 09:36:00,69.9,64.2,29.93,East,84,10.0,12.0,82,0.00,,---,0.00,VWS V14.01,2013-04-13 14:36:00,
2013-04-13 09:41:00,69.9,63.5,29.93,ESE,111,6.0,15.0,80,0.00,,---,0.00,VWS V14.01,2013-04-13 14:41:00,
2013-04-13 09:46:00,70.1,63.3,29.93,East,81,7.0,15.0,79,0.00,,---,0.00,VWS V14.01,2013-04-13 14:46:00,
2013-04-13 09:52:00,70.3,63.5,29.92,East,81,12.0,15.0,79,0.00,,---,0.00,VWS V14.01,2013-04-13 14:52:00,
2013-04-13 09:57:00,70.7,63.5,29.92,East,94,13.0,15.0,78,0.00,,---,0.00,VWS V14.01,2013-04-13 14:57:00,
2013-04-13 10:02:00,70.6,63.4,29.92,ENE,66,14.0,16.0,78,0.00,,---,0.00,VWS V14.01,2013-04-13 15:02:00,
2013-04-13 10:07:00,70.5,63.3,29.92,ENE,61,10.0,13.0,78,0.00,,---,0.00,VWS V14.01,2013-04-13 15:07:00,
2013-04-13 10:12:00,70.4,63.2,29.93,East,99,8.0,16.0,78,0.00,,---,0.00,VWS V14.01,2013-04-13 15:12:00,
2013-04-13 10:17:00,70.3,63.1,29.93,ENE,72,12.0,16.0,78,0.00,,---,0.00,VWS V14.01,2013-04-13 15:17:00,
2013-04-13 10:23:00,70.3,63.1,29.93,ENE,78,6.0,16.0,78,0.00,,---,0.00,VWS V14.01,2013-04-13 15:23:00,
2013-04-13 10:28:00,70.4,63.6,29.92,ENE,74,12.0,16.0,79,0.00,,---,0.00,VWS V14.01,2013-04-13 15:28:00,
2013-04-13 10:33:00,70.3,63.5,29.93,ENE,71,9.0,16.0,79,0.00,,---,0.00,VWS V14.01,2013-04-13 15:33:00,
2013-04-13 10:38:00,70.3,63.5,29.92,East,85,10.0,16.0,79,0.00,,---,0.00,VWS V14.01,2013-04-13 15:38:00,
2013-04-13 10:43:00,71.1,63.9,29.93,ENE,65,13.0,16.0,78,0.00,,---,0.00,VWS V14.01,2013-04-13 15:43:00,
2013-04-13 10:48:00,71.2,63.3,29.92,East,93,8.0,16.0,76,0.00,,---,0.00,VWS V14.01,2013-04-13 15:48:00,
2013-04-13 10:53:00,70.9,63.7,29.92,ENE,63,14.0,16.0,78,0.00,,---,0.00,VWS V14.01,2013-04-13 15:53:00,
2013-04-13 10:58:00,71.1,63.9,29.92,ENE,64,10.0,16.0,78,0.00,,---,0.00,VWS V14.01,2013-04-13 15:58:00,
2013-04-13 11:03:00,70.9,63.0,29.92,East,93,6.0,10.0,76,0.00,,---,0.00,VWS V14.01,2013-04-13 16:03:00,
2013-04-13 11:08:00,70.8,63.2,29.92,East,100,10.0,17.0,77,0.00,,---,0.00,VWS V14.01,2013-04-13 16:08:00,
2013-04-13 11:13:00,71.0,63.1,29.92,ENE,58,6.0,17.0,76,0.00,,---,0.00,VWS V14.01,2013-04-13 16:13:00,
2013-04-13 11:18:00,71.5,63.5,29.92,East,85,17.0,17.0,76,0.00,,---,0.00,VWS V14.01,2013-04-13 16:18:00,
2013-04-13 11:23:00,71.4,63.5,29.92,ENE,77,10.0,19.0,76,0.00,,---,0.00,VWS V14.01,2013-04-13 16:23:00,
2013-04-13 11:28:00,71.6,63.3,29.92,ENE,78,8.0,19.0,75,0.00,,---,0.00,VWS V14.01,2013-04-13 16:28:00,
2013-04-13 11:33:00,71.2,62.9,29.92,ENE,74,16.0,19.0,75,0.00,,---,0.00,VWS V14.01,2013-04-13 16:33:00,
2013-04-13 11:38:00,71.2,62.9,29.93,East,96,15.0,19.0,75,0.00,,---,0.00,VWS V14.01,2013-04-13 16:38:00,
2013-04-13 11:43:00,71.5,63.2,29.93,ENE,67,10.0,19.0,75,0.00,,---,0.00,VWS V14.01,2013-04-13 16:43:00,
2013-04-13 11:48:00,71.3,63.0,29.92,East,82,14.0,19.0,75,0.00,,---,0.00,VWS V14.01,2013-04-13 16:48:00,
2013-04-13 11:54:00,71.5,62.8,29.92,East,101,10.0,20.0,74,0.00,,---,0.00,VWS V14.01,2013-04-13 16:54:00,
2013-04-13 11:59:00,71.3,62.6,29.92,East,81,16.0,20.0,74,0.00,,---,0.00,VWS V14.01,2013-04-13 16:59:00,
2013-04-13 12:04:00,71.6,62.9,29.92,East,91,15.0,17.0,74,0.00,,---,0.00,VWS V14.01,2013-04-13 17:04:00,
2013-04-13 12:09:00,71.6,63.3,29.92,East,85,18.0,18.0,75,0.00,,---,0.00,VWS V14.01,2013-04-13 17:09:00,
2013-04-13 12:15:00,71.5,62.8,29.92,ENE,71,14.0,18.0,74,0.00,,---,0.00,VWS V14.01,2013-04-13 17:15:00,
2013-04-13 12:20:00,71.7,63.0,29.92,East,96,16.0,18.0,74,0.00,,---,0.00,VWS V14.01,2013-04-13 17:20:00,
2013-04-13 12:25:00,71.6,63.3,29.92,ENE,78,16.0,19.0,75,0.00,,---,0.00,VWS V14.01,2013-04-13 17:25:00,
2013-04-13 12:30:00,71.5,62.4,29.92,ENE,74,9.0,19.0,73,0.00,,---,0.00,VWS V14.01,2013-04-13 17:30:00,
2013-04-13 12:35:00,71.6,62.9,29.92,ENE,64,9.0,19.0,74,0.00,,---,0.00,VWS V14.01,2013-04-13 17:35:00,
2013-04-13 12:40:00,71.6,62.9,29.91,East,88,11.0,19.0,74,0.00,,---,0.00,VWS V14.01,2013-04-13 17:40:00,
2013-04-13 12:45:00,71.6,62.5,29.91,ENE,77,15.0,20.0,73,0.00,,---,0.00,VWS V14.01,2013-04-13 17:45:00,
2013-04-13 12:50:00,71.4,62.7,29.91,ENE,64,17.0,20.0,74,0.00,,---,0.00,VWS V14.01,2013-04-13 17:50:00,
2013-04-13 12:56:00,71.6,62.9,29.91,ENE,75,12.0,21.0,74,0.00,,---,0.00,VWS V14.01,2013-04-13 17:56:00,
2013-04-13 13:01:00,71.7,62.6,29.90,East,84,12.0,21.0,73,0.00,,---,0.00,VWS V14.01,2013-04-13 18:01:00,
2013-04-13 13:06:00,71.9,63.2,29.90,East,86,11.0,17.0,74,0.00,,---,0.00,VWS V14.01,2013-04-13 18:06:00,
2013-04-13 13:11:00,72.1,63.0,29.90,ENE,75,16.0,18.0,73,0.00,,---,0.00,VWS V14.01,2013-04-13 18:11:00,
2013-04-13 13:16:00,71.9,62.8,29.90,ENE,72,10.0,21.0,73,0.00,,---,0.00,VWS V14.01,2013-04-13 18:16:00,
2013-04-13 13:21:00,71.8,63.1,29.90,East,84,17.0,21.0,74,0.00,,---,0.00,VWS V14.01,2013-04-13 18:21:00,
2013-04-13 13:27:00,71.4,62.3,29.90,ENE,72,13.0,21.0,73,0.00,,---,0.00,VWS V14.01,2013-04-13 18:27:00,
2013-04-13 13:32:00,71.6,62.5,29.89,East,96,8.0,21.0,73,0.00,,---,0.00,VWS V14.01,2013-04-13 18:32:00,